Terminal Aerodrome Forecast
Issued by NWS Cleveland, OH

Home | Current Version | Previous Version | Graphics & Text | Print | Product List | Glossary On
Versions: 1 2 3 4 5 6 7 8 9 10 11 12 13 14 15 16 17 18 19 20 21 22 23 24 25 26 27 28 29
881
FTUS41 KCLE 241511 AAB
TAFCLE
TAF AMD
KCLE 241511Z 2415/2518 20020G30KT P6SM BKN250
     FM241800 20020G30KT P6SM SCT045 BKN200
     FM250300 19014KT P6SM -SHRA VCTS SCT045CB BKN150
      TEMPO 2505/2508 26020G40KT 3SM TSRA BKN020CB
     FM251400 23015G22KT P6SM VCSH OVC025=

USA.gov is the U.S. government's official web portal to all federal, state and local government web resources and services.